Theta_e
328 327 334 336 340 338 337 338 339 340 340 341 341 341 342 342 341 340 338 336 335 334 332 330 330 328 329 328 327 327 321 322
325 326 327 336 337 336 336 337 337 338 338 338 337 338 340 340 339 337 336 335 335 333 330 329 328 326 327 326 325 323 316 319
324 328 330 333 336 336 336 336 335 335 335 335 334 338 338 336 335 335 335 334 333 331 329 327 323 324 324 322 319 311 312 314
328 332 333 334 334 334 333 332 330 331 329 328 330 333 335 335 334 334 334 332 331 330 327 324 319 309 309 315 307 306 308 311
329 329 331 330 330 330 328 327 325 323 326 327 328 329 329 330 330 328 326 327 323 322 317 315 312 308 306 305 306 305 306 310
326 328 329 329 328 325 324 322 322 323 327 326 325 323 323 322 323 320 318 318 317 315 315 309 307 307 305 304 306 305 307 311
320 322 322 323 323 322 322 321 321 325 326 325 323 321 320 319 318 316 315 316 315 315 312 308 306 305 304 303 304 306 306 309
318 318 318 318 316 318 317 318 323 325 326 326 324 322 320 319 317 316 316 317 316 315 311 306 305 303 303 303 303 306 306 307
316 316 318 317 317 317 317 323 325 325 326 326 325 323 322 319 318 317 317 317 316 314 309 307 304 304 303 302 302 303 306 306
316 318 316 317 318 320 321 322 322 323 323 325 326 324 324 320 319 317 318 317 316 312 307 304 304 302 301 301 301 301 300 305
316 316 315 315 317 318 317 318 319 321 322 322 322 326 324 321 319 317 317 314 312 308 305 304 301 301 301 300 300 299 299 304
315 316 315 316 317 317 316 316 317 319 320 322 321 321 324 321 320 318 315 311 308 306 305 304 303 302 305 303 300 300 299 298
315 315 315 314 314 313 313 312 315 318 319 320 320 319 322 322 321 317 315 312 309 307 304 304 302 303 302 302 302 302 299 298
314 314 312 312 312 313 313 312 314 316 319 320 322 323 323 324 320 319 316 312 308 307 305 304 303 303 301 299 297 299 300 300
312 312 312 311 311 309 312 313 315 316 317 318 320 322 323 324 320 319 316 313 309 307 305 305 303 303 302 300 294 293 293 296
313 313 312 312 312 310 310 310 311 315 317 318 320 322 323 324 322 318 316 312 308 307 308 305 304 302 302 303 299 296 292 291
313 313 313 313 313 312 312 314 316 316 317 318 320 320 322 322 321 318 315 312 309 308 307 307 305 303 301 300 298 297 295 292
313 312 313 313 314 315 315 315 316 317 319 319 319 320 320 319 321 317 315 312 311 311 309 306 304 302 300 300 297 295 293 292
312 312 313 314 315 316 317 319 317 317 319 319 318 317 317 318 318 315 313 313 310 311 310 306 304 301 300 300 298 297 297 295
312 313 314 317 318 318 320 321 319 320 320 321 319 319 319 320 318 315 313 312 311 309 305 304 303 303 301 301 300 299 299 298
Wind_Speed
5 8 10 27 17 24 24 22 22 22 22 21 19 17 19 20 21 19 18 16 15 13 12 13 15 18 17 18 17 13 6 5
7 10 3 20 22 23 22 22 21 22 22 21 17 17 21 20 19 18 18 16 14 12 11 12 14 19 19 18 17 13 6 5
3 9 18 22 23 20 20 21 22 21 20 20 15 11 14 13 14 17 17 16 14 11 11 13 13 17 16 16 12 4 5 4
4 10 18 25 15 16 14 15 12 11 12 11 8 10 9 11 13 15 15 15 13 11 11 14 7 6 6 11 5 5 4 4
3 14 19 17 11 7 6 7 8 8 12 11 11 9 7 7 6 5 6 9 5 6 7 4 6 6 6 6 5 4 3 3
5 7 19 19 9 4 6 7 7 8 9 13 9 7 5 6 6 5 4 4 6 5 4 5 6 6 8 7 6 4 3 3
6 10 12 12 11 8 7 7 7 9 9 10 9 10 6 6 5 4 5 5 5 5 5 5 5 6 6 7 6 5 6 3
10 10 9 11 9 8 5 7 6 4 7 7 8 9 6 7 6 5 6 5 4 5 6 5 4 6 5 6 6 5 6 5
11 11 11 12 12 8 8 5 5 6 4 7 9 8 7 8 7 5 5 5 6 5 4 4 4 4 5 5 5 6 5 5
12 10 10 12 8 4 4 4 4 7 4 5 7 7 6 6 5 5 5 5 5 5 4 4 4 4 3 4 4 4 6 6
10 10 11 8 7 6 5 6 4 4 4 4 6 5 6 6 4 4 5 5 5 6 2 4 3 3 3 3 3 4 5 5
12 9 10 9 7 6 4 5 2 3 3 4 6 1 6 6 4 5 5 5 5 3 4 2 3 4 2 3 3 4 2 4
14 14 11 9 10 11 8 10 6 3 4 5 5 6 6 7 5 5 5 7 7 6 4 5 2 3 4 1 2 2 3 3
11 13 11 9 9 10 8 7 1 2 2 4 7 10 8 6 7 7 8 6 7 6 6 3 3 5 4 3 1 3 2 4
10 12 12 9 8 3 2 2 1 2 3 4 6 8 7 7 9 9 8 8 8 7 6 7 5 3 4 5 2 5 0 1
12 12 11 9 9 7 7 8 7 4 3 2 2 2 4 6 7 9 10 4 6 7 6 4 5 5 0 2 2 5 4 1
11 13 13 13 12 10 9 7 5 3 3 5 6 5 7 8 7 8 7 7 7 9 8 7 5 5 4 3 2 2 2 3
13 15 15 16 15 15 14 13 10 8 10 9 8 7 7 9 11 9 9 9 9 9 9 8 7 5 4 4 3 4 3 3
16 18 18 18 17 17 18 16 13 14 13 10 10 7 6 10 10 8 8 8 8 8 7 6 5 5 4 3 2 2 2 3
20 20 20 20 20 20 18 19 11 13 14 11 10 10 11 11 10 7 7 8 6 5 5 6 9 4 7 4 2 2 2 2
Wind_Direction
104 20 217 205 187 146 140 139 134 132 132 131 129 129 126 126 123 123 123 117 108 103 95 89 84 81 92 97 95 96 99 105
137 118 243 226 148 141 141 132 132 126 123 122 119 117 123 124 126 126 121 115 112 105 94 83 74 76 100 99 100 97 88 94
160 199 219 207 128 131 125 138 124 120 114 112 115 127 125 122 128 127 126 122 119 114 99 76 63 79 97 98 94 86 86 81
343 27 113 98 117 124 141 130 125 124 119 117 113 115 122 122 123 119 123 123 116 104 89 76 68 77 81 93 92 95 88 92
56 104 75 64 80 122 129 125 127 123 122 118 121 107 118 124 119 119 124 119 109 99 74 59 96 87 87 100 96 89 92 82
66 93 124 138 126 106 114 131 120 130 130 123 123 114 127 125 127 131 138 110 107 99 102 101 92 101 106 104 110 108 92 74
90 100 100 119 129 128 138 130 138 133 137 132 142 122 135 147 113 153 136 123 127 125 120 119 113 103 91 108 121 124 112 103
108 104 108 115 113 125 134 128 110 95 129 136 136 123 141 140 143 166 135 136 141 134 135 141 136 108 105 108 126 132 123 112
113 113 112 111 107 125 136 117 99 131 133 128 133 134 152 151 164 156 145 141 139 118 118 124 114 92 126 116 130 137 140 142
122 117 111 119 119 148 121 101 126 124 115 111 140 135 153 136 160 157 149 135 136 136 145 139 125 148 145 161 153 149 152 161
122 127 120 100 110 101 94 108 99 97 112 138 110 156 143 149 163 135 134 148 146 146 158 128 149 171 181 173 162 186 179 157
128 129 124 129 114 93 68 61 130 139 171 137 151 62 166 158 135 146 155 140 141 142 143 121 137 164 164 156 195 217 181 175
157 152 154 150 156 156 165 181 186 184 192 152 162 195 187 170 155 156 159 162 170 168 139 141 112 158 105 33 309 270 218 218
160 168 166 172 162 169 181 177 184 215 175 184 198 197 193 155 161 174 184 170 173 169 155 137 130 174 142 112 189 326 307 213
180 178 179 175 178 156 143 82 25 244 227 208 204 189 165 171 178 179 191 184 183 181 166 157 155 198 186 145 125 218 137 328
186 187 191 188 190 192 193 201 202 214 215 231 247 196 182 197 184 180 193 174 179 182 172 158 128 167 217 200 118 143 173 274
193 191 194 197 199 204 194 208 216 211 195 203 215 203 194 201 190 183 175 184 184 177 175 171 169 153 162 148 112 95 79 131
195 194 197 197 199 204 206 213 214 206 208 205 208 204 202 202 195 190 188 187 187 195 187 173 175 163 144 135 148 165 183 152
195 195 196 198 202 208 214 216 212 211 207 203 193 192 200 207 197 183 187 189 192 196 185 163 139 105 78 95 129 123 132 123
197 198 204 205 207 212 214 217 215 213 210 201 201 201 205 198 195 174 171 172 168 125 111 103 103 67 102 99 64 227 184 142